User: anonymous   Login
Location: Carri�res
(48.9069°N, 2.1792°E)
Time: 22:26:23
(UTC+00:00)
Language:

Hubble Space Telescope - Orbit

View from above orbital plane
View from above orbital plane
View from above satellite
View from above satellite

Ground track
Ground track

The orbit data is extracted from the following two-line orbital elements,

1 20580U 90037B   21124.99941750  .00000643  00000-0  27972-4 0  9992
2 20580  28.4730 352.6062 0002506 307.0275  53.0106 15.09631357504680
Epoch (UTC): 04 May 2021 23:59:09
Eccentricity: 0.0002506
inclination: 28.4730°
perigee height: 535 km
apogee height: 539 km
right ascension of ascending node: 352.6062°
argument of perigee: 307.0275°
revolutions per day: 15.09631357
mean anomaly at epoch: 53.0106°
orbit number at epoch: 50468

The dashed part of the orbit path shows where the satellite is in the earth's shadow,  

DLR